CAPE
0 0 6 0 73 490 330 334 161 183 103 53 0 3 16 661 589 187 0 0 197 184 302 847 1334 1430 1649 1552 1114 1615 2200 1759 1535 1590 1304 1067 1504 1792 2050 2180 2215 2388 2383 2232 2281 2132 2032 1999 1873
7 0 1 359 265 273 235 338 207 132 101 0 0 0 201 407 163 0 0 1 186 134 143 483 1350 1479 1782 1623 1405 1642 1996 1577 1915 1948 1356 1913 1780 1412 1773 2310 2219 2278 2396 2130 2112 2155 2060 2033 2028
130 0 173 290 218 157 281 169 210 72 4 5 24 190 725 226 0 0 0 18 148 40 116 826 1479 1674 1615 1716 1647 1614 1617 1547 1919 1884 1657 1338 1889 1727 1836 1851 2031 2198 2218 2163 2047 1884 2065 2219 1956
0 158 291 125 113 233 293 134 366 45 225 66 212 349 248 69 0 0 2 20 117 164 464 910 1420 1573 1716 1727 1799 1566 1858 1517 1601 1761 1625 1695 1759 1703 1663 1901 2111 2198 2026 2212 1951 1378 2091 1841 1800
139 424 180 66 0 45 139 146 44 83 311 186 206 351 132 3 1 0 5 106 202 374 489 688 1398 1569 1705 1895 1718 1555 1592 1609 1606 1645 1675 1672 1721 1663 1628 1718 1869 1926 2067 2035 1877 1703 1866 1958 1845
270 615 71 51 9 33 164 236 485 153 525 186 407 271 179 12 0 1 43 113 191 347 235 576 1274 1510 1718 1720 1495 1608 1502 1615 1566 1412 1537 1573 1607 1584 1583 1727 1688 1791 1888 1914 1981 1937 1739 1960 1961
449 429 84 7 24 38 78 180 440 555 309 133 455 465 79 1 0 1 85 103 182 237 479 642 847 1280 1572 1378 1532 1620 1610 1541 1414 1434 1388 1442 1780 1644 1560 1603 1594 1699 1761 1880 1959 1811 1753 1740 2136
661 513 56 74 8 4 56 212 178 291 534 546 537 226 0 0 0 4 61 84 109 394 396 544 724 1075 742 1241 1520 1497 1551 1382 1330 1547 1374 1433 1285 1444 1461 1349 1556 1614 1719 1859 1850 1672 1473 2106 1954
441 404 117 72 154 41 70 119 90 199 516 422 478 112 0 0 4 24 44 71 178 188 501 514 467 751 1013 999 1196 1396 1454 1251 1306 1264 1410 1408 1186 1327 1270 1256 1568 1595 1742 1760 1757 1607 1699 1513 909
318 407 172 85 99 155 147 140 27 251 399 485 269 0 0 0 6 15 31 68 84 224 354 266 718 731 1062 915 1285 1089 1066 1288 1170 990 1500 1245 1320 1287 822 1081 1440 1614 1746 1444 1121 1459 1703 1892 1000
277 391 138 78 261 267 122 220 77 151 426 415 56 0 0 0 4 12 31 47 106 160 203 765 728 976 902 635 809 1013 864 871 1129 987 1187 1125 723 1042 902 1121 947 1025 1342 948 1019 1310 1404 1179 541
196 215 114 52 23 193 435 469 316 423 509 518 135 0 0 0 2 9 26 38 122 189 285 684 598 723 1048 557 836 653 672 566 567 788 843 952 992 1043 793 1043 519 585 1242 1052 1293 1312 1185 1036 652
51 207 54 0 14 160 459 233 302 502 651 614 211 0 0 0 2 13 23 34 117 175 253 507 618 1065 909 661 753 795 646 772 582 738 719 842 786 829 817 757 746 680 914 1075 1192 1252 1363 1157 710
0 245 60 10 3 173 162 248 489 487 752 519 76 0 0 0 0 9 22 76 105 110 168 359 730 999 958 931 951 1032 1140 750 799 761 813 881 681 943 714 758 860 792 1016 973 1409 1551 1239 1168 538
0 206 55 0 0 5 366 215 482 568 623 275 31 0 0 0 0 3 13 62 100 61 171 254 492 657 833 689 813 1154 995 711 1040 1244 1312 1409 1216 1214 1040 1120 926 797 1300 1354 1295 1413 1394 502 501
0 84 78 36 0 10 274 119 495 521 555 230 34 0 1 0 0 1 10 16 39 21 167 266 158 571 642 545 719 619 781 1173 1110 1058 1042 1146 1437 1463 1717 1040 1359 1034 930 919 1053 1144 982 857 722
0 89 89 78 41 19 218 248 463 507 597 231 55 0 5 5 6 6 5 5 0 36 180 194 205 391 480 749 754 601 1087 1124 1185 999 1315 1169 1218 1270 1469 1082 1606 1608 653 804 1001 1007 729 595 338
0 158 73 132 109 54 338 554 584 504 671 443 154 39 31 25 15 1 1 1 0 25 230 187 202 488 525 829 763 641 589 1097 1235 1036 1437 1146 1229 1141 1334 1299 1535 1737 682 772 1292 993 1032 803 588
0 91 68 91 102 126 274 419 896 674 599 697 519 225 120 182 52 0 0 0 0 2 131 200 199 664 660 649 379 487 772 1190 1196 1157 1690 1474 1236 1274 1578 1428 1390 1690 891 1437 1340 943 1321 885 593
0 39 58 92 105 93 216 343 448 903 837 444 776 585 346 200 13 5 4 3 1 0 37 226 362 861 856 607 475 417 884 863 1062 1145 1371 1356 1304 1400 1448 1379 1021 1268 1167 1502 1253 1251 956 655 866
0 36 87 129 0 1 16 94 158 166 510 870 808 644 326 89 6 63 64 21 14 3 0 179 470 896 1082 809 1084 1109 1300 1054 1151 1370 1362 1445 1525 1355 1603 1773 1454 1412 1460 1199 1418 1329 1322 937 510
0 2 49 10 0 36 3 72 97 95 206 641 919 947 426 155 45 134 158 187 102 9 0 65 441 726 1184 1172 1062 989 773 731 958 1149 1381 1375 1508 1447 1332 1590 1802 1508 1153 1560 1172 1029 1330 683 515
0 0 37 28 0 55 20 7 28 213 242 427 547 787 656 323 302 241 287 285 230 98 0 4 445 631 955 1269 1602 1210 1167 745 1010 1253 1517 1625 1677 1891 1438 1470 1651 1660 1773 1005 1024 1834 1615 329 750
5 1 3 16 2 12 11 17 55 105 124 131 401 642 771 583 513 314 318 412 366 172 88 0 463 905 1008 1295 1495 1664 1184 1126 1104 1082 1411 1297 1298 1506 1501 1585 1540 1633 1720 1246 1408 1387 1678 1762 1324
30 8 0 0 0 2 0 0 85 57 33 51 33 546 619 784 626 502 439 519 442 241 231 357 524 1011 1225 1264 1487 1636 1671 1177 1157 1457 1208 1015 1107 1333 1719 1789 1565 1476 1654 1358 1404 1742 1637 1485 968
12 3 1 0 0 0 1 56 36 46 87 154 199 374 537 675 781 791 640 655 545 476 478 366 1007 1247 1411 1266 1481 1882 1894 1544 986 997 679 869 759 1061 2041 1598 1652 1627 1568 1385 1537 1612 1363 1133 1223
15 2 1 17 4 0 60 25 43 62 116 257 344 719 855 524 880 971 635 814 711 696 773 643 1050 1455 1643 1708 1679 1854 2085 1913 1126 744 799 1277 1213 756 1856 1273 1571 1480 1525 1478 1848 1710 1196 1436 1285
0 3 1 3 14 11 22 2 49 58 88 154 478 724 628 726 825 729 674 920 923 931 898 987 1089 1435 1606 1801 1762 1760 1893 2074 1978 1366 1111 571 629 1181 1026 1589 1146 1555 1514 1632 1753 1077 1600 1386 1304
0 0 4 44 3 42 13 58 12 71 44 194 226 257 290 391 363 627 764 432 726 1097 970 980 1194 1429 1609 1801 1792 1778 1809 1892 2068 1810 1556 1361 933 1117 1227 1282 1366 1497 1535 1747 1709 1560 1683 1444 1579
0 0 26 14 0 0 3 0 18 40 37 292 81 19 32 56 105 142 241 487 816 933 1074 1202 1012 1131 1309 1637 1785 1737 1766 1779 1782 1908 1706 1552 1494 1262 1205 1450 1866 1973 1822 2038 1952 1618 932 1628 1558
CIN
0 0 -4 0 -8 0 -2 -2 -12 -12 -5 -9 0 -2 -3 -16 -12 -14 0 0 -8 -19 -28 -1 0 0 0 0 -12 0 0 0 -1 0 -6 -25 -9 -3 0 0 -2 0 0 0 0 0 0 0 0
-5 0 0 0 0 -1 -7 -3 -1 -11 -8 -1 0 0 -11 -4 -37 0 0 -1 -6 -19 -29 -15 -1 0 0 0 -1 0 0 0 0 0 -1 0 0 -1 0 0 0 0 0 0 0 0 0 0 0
-32 0 -2 -2 -11 -2 0 -7 -14 -7 -5 -52 -41 -5 -4 -3 0 -1 0 -10 -4 -4 -4 -27 0 0 0 0 0 0 0 0 0 0 0 -3 0 0 0 0 0 0 0 0 0 -1 -1 0 0
-1 -3 -1 0 -1 -1 -2 -5 -5 -8 -3 -12 -13 -18 -35 -12 -1 0 -2 -3 -2 -3 -2 -21 0 0 0 0 0 0 0 0 -1 0 0 0 0 0 0 0 0 0 0 0 -1 -4 0 0 0
-3 0 -3 -2 -2 -23 -5 -36 -3 -10 -3 -7 -3 -3 -45 -1 -4 0 -2 -4 -3 -3 -8 -13 0 0 0 0 0 0 0 0 0 0 0 0 0 0 0 0 0 0 0 -1 -2 -2 0 -1 -2
0 -1 -5 -1 -17 -13 -1 -5 -2 -3 -1 -47 -2 -10 -23 -36 0 -1 -3 -2 -3 -4 -2 -11 -1 0 0 0 0 0 0 0 0 0 0 0 0 0 0 0 0 0 0 -1 -4 -5 -10 -3 -2
0 -4 -10 -37 -14 -10 -2 -2 -2 -3 -21 -31 -2 -3 -47 -1 0 -2 -4 -6 -4 -5 -2 -1 -1 -2 0 0 0 0 0 0 0 -1 -2 -2 0 0 0 0 0 0 0 -2 -2 -6 -5 -11 -1
-2 -1 -4 -14 -40 -32 -32 -21 -38 -23 -2 -3 -8 -17 0 0 0 -4 -3 -2 -2 -4 -4 -1 -2 -1 -1 0 0 0 0 0 -1 0 -6 -5 -13 -7 -5 -7 0 0 -3 -3 -8 -16 -17 -2 -12
-3 -4 -6 -3 -22 -40 -41 -22 -36 -68 -2 -4 -1 -25 0 0 -3 -3 -3 -4 -13 -11 -4 -3 -2 -2 -7 -2 -2 -1 -1 -5 -6 -6 -7 -11 -4 -6 -2 -10 0 0 -6 -8 -17 -24 -25 -41 -60
-2 -7 -2 -38 -11 -7 -17 -23 -74 -38 -2 -2 0 0 0 0 -2 -1 -3 -4 -4 -3 -3 -2 -9 -15 -1 -2 -3 -4 -13 -1 -1 -2 -1 -5 -5 -10 -2 -7 -5 -8 -14 -26 -40 -37 -40 -24 -20
-1 -3 -16 -2 -3 -11 -54 -47 -37 -36 -3 -2 -36 0 0 0 -3 -1 -3 -3 -6 -7 -4 -20 -14 -5 -2 -6 -1 -7 -20 -2 -2 -1 -12 -2 -2 -4 -2 -4 -14 -18 -31 -17 -19 -18 -31 -5 -4
-4 -31 -2 -3 -28 -6 -1 -1 -2 -7 -4 -2 -15 0 0 0 0 -2 -4 -2 -20 -9 -2 -10 -3 -9 -8 -1 -2 -5 -3 -3 -2 -1 -1 -5 -4 -3 -5 -2 -2 -2 -3 -2 -1 -4 -1 -3 -1
-32 -2 -7 -1 -3 -3 -3 -2 -2 -2 -1 -1 -24 0 0 0 -1 -3 -3 -4 -20 -7 -5 -2 -1 -8 -11 -6 -3 -7 -2 -1 -7 -2 -2 -3 -2 -3 -2 -2 -1 -1 -2 -2 -1 0 -1 -2 -2
0 -3 -11 -3 -4 -3 -5 -2 -2 -1 -3 -6 -60 0 0 0 0 -2 -3 -41 -22 -18 -3 -2 -3 -1 -5 -4 -2 -7 -3 -3 -1 -5 -1 -1 -1 -1 -1 -2 -2 -2 -2 -1 -1 -2 -1 -3 -2
0 -4 -18 0 0 -11 -2 -27 0 -1 -3 -25 -53 0 0 0 0 -2 -4 -37 -33 -30 -3 -3 -2 -2 -1 -3 -1 -3 -3 -10 -2 -6 -2 -2 -1 -2 -4 -2 -1 0 -11 -11 -8 -1 -1 -1 -2
0 -5 -4 -6 0 -19 -17 -17 -11 -10 -5 -15 -39 -2 -1 -1 0 -1 -3 -4 -55 -5 -4 -3 -2 -2 -1 -2 -1 -2 -8 -4 -1 -13 -5 -4 0 0 -3 -2 -2 -5 -2 -1 -2 -3 -6 -4 -3
0 -6 -3 -3 -13 -16 -16 -18 -4 -7 -1 -11 -20 -1 -5 -4 -2 -1 -3 -2 0 -18 -6 -5 -2 -2 -2 -1 -2 -2 -5 -9 -6 -6 -9 -6 -1 -2 -2 -2 -1 -5 0 -1 -2 -1 -16 -5 -3
0 -6 -8 -2 -3 -12 -17 -4 -2 -10 -1 -4 -2 -16 -6 -17 -3 -2 -1 -1 0 -17 -8 -4 -3 -2 -1 -1 -2 -2 -4 -9 -9 -1 -16 -13 -2 -1 -2 -1 0 -5 -1 -1 -2 -1 -2 -8 -2
0 -6 -12 -3 -12 -9 -3 -11 -3 -6 -2 -1 -1 -2 -6 -3 -6 0 0 0 0 -2 -17 -9 -2 0 -1 -1 -2 -2 -1 -3 -3 -6 -5 -3 -1 -1 -2 -6 -5 -4 -2 -5 -6 -3 -10 -6 -7
-1 -4 -4 -4 -6 -12 -4 -5 -4 -2 -24 -37 -1 -1 -1 -7 -5 -2 -3 -3 -2 0 -30 -22 -9 -1 -1 -2 -2 -2 -6 -3 -2 -9 -2 0 -1 0 -1 -4 -5 -4 -1 -1 -2 -2 -6 -5 -10
0 -7 -7 -4 0 -1 -3 -5 -8 -26 -2 -15 -6 -3 -3 -10 -7 -18 -19 -3 -4 -2 0 -36 -22 -6 -1 -1 -2 -2 -7 -20 -2 -6 -2 -1 -1 -1 -1 -1 -9 -7 -2 -3 -2 -6 -1 -20 -2
0 -2 -11 -7 0 -3 -2 -6 -47 -17 -17 -4 -3 -1 -4 -12 -7 -6 -4 -8 -9 -2 0 -50 -26 -21 -1 -3 -2 -17 -19 -2 -3 -4 -1 -3 -1 0 0 -1 0 -15 -2 -5 -2 -4 -3 -18 -2
0 0 -5 -4 0 -3 -9 -12 -12 -4 -2 -3 -2 -2 -3 -23 -4 -2 -2 -8 -2 -10 0 -75 -41 -32 -2 -2 -8 -3 -7 -27 -8 -11 -3 -2 -6 0 -1 -1 0 -8 -8 -6 -2 -4 -12 -13 -15
-5 -1 -3 -3 -6 -7 -6 -10 -16 -4 -15 -12 -2 -2 -2 -5 -4 -2 -3 -2 -3 -4 -4 0 -41 -32 -19 -9 -11 -5 -2 -7 -5 -21 -2 -2 -2 -1 -1 -1 0 -1 -1 -5 -1 -7 -11 -10 -8
-5 -3 0 0 0 -2 -1 0 -11 -30 -61 -33 -34 -3 -3 -5 -11 -6 -2 -3 -5 -3 -4 -2 -29 -34 -24 -19 -8 -14 -7 -2 -8 -2 -3 -3 -2 -12 -12 -2 -2 -1 -1 -1 -2 0 -3 -5 -4
-5 -3 -3 0 0 0 -8 -14 -20 -60 -54 -15 -5 -7 -2 -6 -10 -7 -4 -3 -3 -5 -4 -1 -14 -34 -27 -31 -19 -4 -6 -2 -1 -2 -4 -6 -3 -20 -7 -10 -5 -1 0 -2 -1 -2 -4 -1 -4
-4 -4 -2 -6 -8 -1 -17 -86 -23 -12 -24 -6 -4 -2 -3 -4 -4 -8 -11 -6 -7 -7 -5 -2 -2 -27 -31 -33 -25 -10 -8 -17 -2 -1 -7 -3 -6 -19 -4 -9 -1 -1 -1 -1 -3 -3 -9 -1 -6
0 -3 -4 -10 -16 -6 -9 -10 -12 -2 -3 -5 -3 -21 -63 -42 -15 -36 -33 -8 -2 -5 -3 -4 -2 -5 -29 -22 -22 -26 -23 -16 -17 -2 -8 -2 -4 -25 -21 -4 -1 -1 -1 -1 -2 -2 -2 -1 -2
0 0 -3 -8 -17 -9 -22 -8 -17 -2 -7 -3 -39 -97 -101 -109 -132 -77 -10 -74 -54 -6 -3 -3 -3 -2 -1 -6 -8 -14 -23 -16 -9 -14 -17 -19 -20 -8 -2 -16 -1 -1 -1 0 -1 -7 -2 -8 -2
0 -1 -6 -8 0 -1 -52 0 -6 -38 -42 -3 -139 -248 -267 -282 -250 -217 -183 -127 -62 -69 -91 -7 -3 -4 -3 -2 -2 -4 -12 -12 -12 -19 -21 -28 -27 -22 -8 -2 -2 -1 -1 -2 -2 -1 -1 -1 0
Wind_Speed
20 22 20 18 13 14 15 15 17 20 21 21 27 25 20 8 12 25 35 33 34 32 31 31 29 29 29 28 27 24 11 11 9 8 8 8 8 8 8 10 12 14 12 14 14 13 14 17 17
20 17 19 16 12 13 14 13 9 12 18 22 24 23 23 15 24 33 32 32 32 31 32 29 29 29 28 27 26 25 19 12 9 8 8 8 8 8 8 9 11 12 12 13 14 14 16 17 14
19 19 11 10 10 12 11 10 8 17 22 22 26 3 7 16 32 28 29 33 31 30 28 27 29 28 27 26 26 25 25 24 7 8 7 7 7 8 9 11 11 11 10 11 13 14 17 17 10
20 14 15 10 11 12 7 4 19 20 9 15 21 18 7 15 29 26 30 33 30 29 25 28 28 27 27 26 25 25 25 25 21 6 6 6 7 8 14 12 13 12 10 10 12 14 3 2 6
15 13 13 12 11 13 7 13 5 15 11 9 18 15 17 23 18 29 31 30 30 26 23 26 27 26 26 25 25 25 25 25 23 16 9 9 7 14 13 15 13 9 9 7 9 20 24 7 8
15 13 15 14 12 17 15 12 11 3 5 14 18 18 7 21 29 30 31 28 28 22 25 24 26 26 25 24 23 23 24 24 14 11 19 19 15 23 23 23 22 14 10 5 7 18 21 18 11
15 12 15 20 21 19 23 15 18 23 5 19 14 14 17 29 30 30 31 27 25 24 20 25 25 25 24 22 21 22 22 22 18 15 13 23 25 25 23 22 19 19 13 8 15 18 19 16 9
17 13 20 23 21 19 14 12 15 17 8 2 18 23 27 28 30 31 30 26 24 22 20 25 23 24 24 23 21 20 21 20 20 21 16 21 24 25 25 25 20 19 11 13 17 22 24 11 7
19 14 10 8 13 19 7 6 14 22 24 15 9 19 24 27 28 29 27 27 19 23 24 23 24 18 21 23 22 22 22 22 22 23 24 25 23 24 22 12 19 21 17 15 22 23 27 22 8
19 12 11 10 10 16 20 3 7 14 9 5 7 21 25 26 26 26 27 24 24 20 25 20 15 21 24 23 24 23 22 23 22 21 23 20 9 8 16 15 25 26 26 26 26 25 25 24 23
19 14 9 10 13 21 20 3 5 8 8 6 16 25 27 26 25 25 24 23 20 24 24 16 19 25 18 20 24 24 23 25 24 24 19 9 24 4 6 25 25 26 25 25 23 20 19 10 10
20 17 9 9 9 7 26 23 21 13 13 1 14 24 27 25 24 21 20 21 17 22 18 17 18 4 18 24 24 23 24 22 25 24 23 22 22 20 18 18 6 22 20 16 13 10 11 16 11
19 14 12 9 10 11 19 25 9 11 11 1 13 25 28 25 22 17 15 15 15 19 14 13 16 24 20 24 9 18 24 21 23 24 22 21 23 20 14 18 18 20 24 21 18 15 16 12 8
14 21 13 13 9 9 8 11 17 8 3 3 17 24 25 25 20 13 14 13 14 17 16 15 17 22 25 8 15 23 18 22 23 23 23 20 19 20 22 18 24 21 16 14 13 13 19 18 13
19 21 20 17 7 5 8 7 6 9 4 4 18 22 22 23 18 14 12 12 13 22 14 16 21 21 23 18 25 24 23 22 17 23 22 16 17 19 20 20 19 18 15 18 19 20 18 18 10
23 22 19 10 5 7 12 2 7 8 4 6 13 20 19 19 20 15 10 10 10 18 14 19 21 21 22 22 24 23 22 22 20 22 22 21 19 19 19 20 17 17 21 21 21 20 20 20 15
24 19 23 9 11 8 13 7 8 8 3 4 9 17 17 17 14 14 10 8 10 13 14 19 14 22 21 21 24 23 12 21 19 18 20 21 20 20 18 20 19 21 21 21 21 19 19 18 19
23 25 15 13 15 18 11 17 8 8 4 5 5 14 14 15 14 11 13 9 8 9 9 22 15 11 20 18 24 23 23 22 20 19 20 21 21 20 19 21 22 22 22 22 12 17 15 18 15
27 32 19 14 8 18 14 8 6 4 5 2 6 10 11 15 9 9 15 10 5 5 6 7 12 10 21 18 24 24 22 19 19 19 20 20 20 21 20 21 22 21 22 7 20 21 19 18 16
32 33 22 9 11 21 5 3 3 2 1 1 6 6 8 34 11 10 9 8 5 3 5 5 9 12 24 21 26 22 14 22 21 18 20 21 20 21 20 20 21 21 18 21 22 20 18 20 6
30 27 20 15 15 24 9 7 6 7 16 14 3 5 13 20 12 9 9 10 8 4 4 8 15 14 26 22 16 19 18 12 20 17 20 20 21 21 19 19 16 21 21 22 22 22 20 17 17
28 27 18 19 17 22 19 16 6 6 11 16 9 3 5 8 15 12 9 9 8 4 5 5 13 14 17 28 4 9 24 22 16 18 20 18 20 20 21 20 19 20 20 22 23 23 18 22 19
24 24 21 19 20 17 17 21 16 4 12 14 13 7 4 12 25 15 12 8 4 3 5 5 6 11 10 13 25 4 25 7 23 9 10 8 16 20 20 20 20 20 20 21 23 17 21 20 19
20 18 23 23 28 35 22 24 17 14 9 13 12 7 17 5 6 13 13 10 7 6 6 6 5 5 9 9 16 24 19 22 13 8 8 20 17 18 19 20 20 20 18 22 22 22 22 19 18
20 21 24 28 30 32 25 25 13 12 13 17 18 8 11 6 8 5 9 11 8 8 9 7 6 5 7 9 10 11 17 21 22 14 16 22 21 22 13 16 19 20 20 20 22 23 21 22 21
27 27 26 26 28 27 16 21 18 10 10 10 9 12 4 19 10 7 11 7 9 8 6 6 6 5 5 6 8 1 6 15 21 18 24 13 21 22 11 11 16 21 18 21 22 22 23 22 23
29 40 35 29 25 27 12 8 7 8 7 6 6 7 6 9 11 4 20 10 8 7 7 7 8 7 6 6 6 4 7 9 12 20 16 10 20 22 4 11 11 17 16 22 15 22 21 12 24
31 32 39 30 30 30 20 21 18 12 8 7 5 6 9 11 12 16 21 13 5 6 7 7 7 9 10 12 9 10 6 8 12 9 15 25 26 8 9 8 11 10 8 15 24 23 16 24 23
32 33 39 32 32 30 18 16 10 10 7 6 7 9 9 10 12 12 16 23 24 19 13 8 9 9 10 13 16 15 15 12 10 10 8 9 21 28 16 16 10 13 14 11 23 25 18 25 26
29 32 34 36 37 33 24 14 9 8 5 4 6 6 8 10 11 13 15 14 14 16 20 27 12 10 11 13 14 15 18 18 13 10 8 6 7 9 15 10 4 25 21 7 17 24 26 7 26
Wind_Direction
132 149 171 197 188 110 63 30 64 80 69 73 97 99 53 321 185 115 115 116 116 111 111 115 109 111 110 109 101 86 13 11 351 336 312 296 276 296 325 350 9 18 9 19 20 21 24 29 30
145 120 180 213 58 75 2 33 28 44 69 82 88 86 81 12 123 103 108 113 114 109 116 107 110 114 116 113 114 120 57 15 344 330 319 300 307 292 318 339 359 10 14 18 24 24 30 30 25
176 155 15 54 81 358 32 20 39 72 85 84 93 51 281 81 99 98 106 115 112 111 104 100 109 113 111 112 116 115 113 91 315 331 316 311 308 335 341 3 6 7 8 16 23 25 38 31 16
140 128 170 69 56 320 5 324 99 95 35 69 77 49 7 76 100 99 109 117 110 108 97 107 109 107 115 109 103 111 108 99 127 260 263 268 323 329 21 11 21 22 16 14 23 24 221 327 3
148 140 38 81 52 268 279 233 236 93 58 53 116 52 62 92 83 109 113 114 114 102 96 107 115 111 112 104 99 95 92 101 120 163 205 208 337 20 14 31 28 11 15 3 10 53 116 6 6
192 148 2 69 56 223 229 254 238 258 39 76 68 70 40 95 110 114 119 113 112 95 106 104 115 119 111 101 86 82 80 82 22 187 150 149 31 68 73 75 73 44 28 342 356 49 61 44 16
209 190 20 86 178 203 198 228 217 204 66 95 65 57 84 115 117 118 123 112 107 103 88 106 108 114 99 86 75 73 67 65 43 35 25 79 92 78 68 65 56 60 40 14 45 51 54 38 5
187 211 82 82 180 204 233 240 238 223 238 42 89 126 116 116 120 121 120 112 105 95 88 111 105 109 112 96 76 70 73 56 62 65 41 61 74 81 82 83 63 62 32 36 50 65 67 27 211
207 259 269 324 42 104 176 284 242 202 188 230 274 95 112 116 118 119 116 117 97 104 109 100 112 77 92 91 81 82 78 80 82 84 96 114 85 76 71 25 61 69 55 41 74 87 114 147 197
238 287 310 360 300 97 126 29 55 239 229 39 47 98 114 119 119 119 120 113 114 99 119 100 68 105 128 93 112 99 82 106 128 104 133 153 0 357 34 41 95 109 115 112 122 127 126 130 119
249 277 302 330 11 99 128 41 329 249 253 74 97 114 122 122 121 120 118 114 106 116 118 77 90 132 78 80 114 106 130 98 102 116 163 206 96 214 233 94 103 129 140 118 136 150 162 212 215
247 190 300 314 258 358 146 123 119 240 237 307 100 120 125 124 124 119 115 114 103 113 97 79 86 297 186 111 113 136 117 126 109 112 125 144 116 163 169 168 242 162 155 187 201 209 200 169 202
253 270 283 322 317 2 93 121 47 254 244 358 102 125 128 125 122 115 110 106 103 109 88 74 80 128 164 154 20 113 116 143 103 125 129 144 124 156 197 181 167 165 140 158 170 187 178 200 228
258 248 278 298 359 24 54 71 91 261 304 53 114 127 128 126 121 114 113 109 107 109 100 88 93 117 140 236 184 142 165 131 121 105 128 149 164 158 144 181 140 160 185 197 197 196 167 167 109
260 256 262 271 333 348 71 46 4 67 58 81 119 129 128 126 120 117 114 111 109 128 99 99 112 112 128 87 147 135 136 135 139 92 133 170 170 171 167 162 181 182 198 172 167 167 174 172 215
251 252 254 281 299 306 270 332 63 78 90 98 122 132 129 128 127 120 115 111 106 120 105 113 119 113 122 114 149 151 102 112 136 102 105 135 152 165 179 176 190 193 163 165 158 167 161 166 185
244 251 249 265 265 281 268 109 91 90 93 120 129 135 133 131 126 124 120 116 110 111 111 119 101 121 117 118 157 159 116 147 171 158 84 111 145 157 179 170 180 170 164 170 164 178 169 174 166
240 244 248 266 260 255 272 62 73 81 89 218 161 138 140 138 135 128 127 123 116 107 106 132 110 91 120 110 161 161 144 124 168 155 80 106 137 155 169 156 154 171 156 154 230 199 205 182 191
243 238 250 262 259 254 270 330 63 63 256 219 244 235 235 151 141 131 131 128 131 118 111 107 109 96 127 117 151 145 133 100 180 176 134 144 137 133 159 159 145 173 171 308 177 169 180 187 195
242 236 248 257 256 256 262 305 5 100 123 343 140 206 157 203 143 137 131 130 139 161 126 123 114 111 146 132 176 182 91 151 156 120 122 144 144 139 149 164 139 162 111 181 168 193 199 175 240
242 239 246 243 261 252 267 276 281 274 249 122 153 242 144 155 150 151 142 133 132 144 173 135 131 124 156 166 242 228 225 99 139 109 132 139 139 144 162 173 192 155 165 139 167 180 195 214 207
238 242 250 251 247 248 254 265 250 236 261 251 258 151 163 165 157 154 154 143 137 142 159 154 134 130 136 199 33 279 189 158 111 121 134 96 142 148 153 156 162 169 157 151 159 175 216 190 202
247 239 254 240 251 253 251 260 263 222 245 254 256 258 188 150 163 158 158 156 169 157 151 171 145 133 131 135 222 347 208 343 193 316 56 30 98 158 148 150 154 164 173 143 172 230 204 209 218
263 233 243 245 245 241 250 244 258 251 250 268 256 250 242 153 168 163 161 168 163 149 149 158 167 148 135 133 160 235 253 235 268 58 45 159 140 125 141 153 154 161 185 150 182 201 206 228 236
243 235 234 240 242 241 244 242 262 263 278 273 259 242 247 169 146 195 167 167 167 168 155 156 168 179 154 143 137 176 263 252 245 278 269 206 181 192 98 122 148 151 171 154 181 188 217 220 227
237 233 234 240 240 240 240 248 253 279 289 296 287 277 202 248 147 150 153 179 172 178 197 196 186 199 197 173 156 184 286 274 256 269 224 135 170 192 95 91 126 172 142 167 182 175 198 213 226
236 235 235 258 247 240 217 243 275 273 288 299 298 289 289 253 257 185 161 151 176 190 205 201 240 220 222 237 251 242 275 281 283 265 277 146 207 259 58 96 98 143 135 186 129 209 173 193 211
247 238 237 247 243 234 232 241 253 251 261 281 302 318 298 297 286 265 255 259 169 186 220 223 218 244 252 259 257 264 258 274 279 290 279 252 244 110 325 127 107 104 88 160 202 217 265 222 204
240 241 237 244 246 237 238 245 224 240 258 260 292 300 309 301 299 296 284 262 251 262 266 256 250 250 257 262 264 266 268 269 274 276 285 292 269 246 286 161 119 132 140 127 196 226 267 226 226
245 240 240 240 238 247 254 251 248 244 255 288 296 303 309 314 311 302 296 300 288 288 272 259 260 260 263 264 264 264 266 268 269 270 272 276 290 291 286 299 336 201 181 122 176 195 220 278 231